FW3572 Weather Reports


time (UTC)temp
F
wind
direction
speed
knots
gust
knots
rain 1hr
in
rain 24hr
in
rain mn
in
humidity
%
barometer
mb
20260510212511 84 110 3.5 8.7 0.00 0.11 0.00 100 1016.8
20260510212015 84 146 0.0 14.8 0.00 0.11 0.00 100 1016.6
20260510211513 84 153 6.1 15.6 0.00 0.11 0.00 100 1016.3
20260510211011 84 157 9.6 15.6 0.00 0.11 0.00 100 1016.1
20260510210513 84 167 7.0 14.8 0.00 0.11 0.00 100 1016.0
20260510210012 84 157 8.7 21.7 0.00 0.11 0.00 100 1016.2
20260510205510 85 138 8.7 21.7 0.00 0.11 0.00 100 1016.1
20260510205010 85 130 9.6 19.1 0.00 0.11 0.00 100 1016.2
20260510204510 85 144 9.6 19.1 0.00 0.11 0.00 100 1016.3
20260510204010 85 122 7.8 19.1 0.00 0.11 0.00 100 1016.3
20260510203509 85 150 7.8 19.1 0.00 0.11 0.00 100 1016.2
20260510203009 86 142 4.3 14.8 0.00 0.11 0.00 100 1016.0
20260510202509 86 140 4.3 17.4 0.00 0.11 0.00 100 1016.1
20260510202009 85 170 7.8 16.5 0.00 0.11 0.00 100 1016.1
20260510201507 85 140 7.8 17.4 0.00 0.11 0.00 100 1016.0
20260510201007 86 119 8.7 16.5 0.00 0.11 0.00 100 1016.0
20260510200510 86 151 10.4 15.6 0.00 0.11 0.00 100 1016.1
20260510200007 86 139 6.1 15.6 0.00 0.11 0.00 100 1016.3
20260510195506 85 102 8.7 15.6 0.00 0.11 0.00 100 1016.4
20260510195006 85 158 8.7 16.5 0.00 0.11 0.00 100 1016.5
20260510194507 87 109 4.3 14.8 0.00 0.11 0.00 100 1016.5
20260510194007 86 144 8.7 16.5 0.00 0.11 0.00 100 1016.6
20260510193508 85 161 8.7 16.5 0.00 0.11 0.00 100 1016.7
20260510193006 86 134 5.2 16.5 0.00 0.11 0.00 100 1016.8
20260510192505 85 167 9.6 17.4 0.00 0.11 0.00 100 1016.8
20260510192005 86 125 6.1 17.4 0.00 0.11 0.00 100 1016.7
20260510191506 87 170 7.8 16.5 0.00 0.11 0.00 100 1016.8
20260510191005 86 171 7.8 14.8 0.00 0.11 0.00 100 1016.8
20260510190507 86 169 7.0 13.9 0.00 0.11 0.00 100 1016.9
20260510190005 86 102 4.3 14.8 0.00 0.11 0.00 100 1016.8
20260510185507 86 141 7.0 14.8 0.00 0.11 0.00 100 1017.0
20260510185008 85 101 7.8 16.5 0.00 0.11 0.00 100 1017.0
20260510184504 85 127 7.8 16.5 0.00 0.11 0.00 100 1017.2
20260510184003 85 157 4.3 13.9 0.00 0.11 0.00 100 1017.3
20260510183504 85 142 7.8 15.6 0.00 0.11 0.00 100 1017.4
20260510183006 85 157 7.0 15.6 0.00 0.11 0.00 100 1017.4
20260510182505 85 131 7.8 14.8 0.00 0.11 0.00 100 1017.5
20260510182003 86 142 7.8 14.8 0.00 0.11 0.00 100 1017.5
20260510181507 85 154 8.7 15.6 0.00 0.11 0.00 100 1017.5
20260510181002 86 173 5.2 15.6 0.00 0.11 0.00 100 1017.5
20260510180502 85 170 4.3 11.3 0.00 0.11 0.00 100 1017.5
20260510180002 85 151 6.1 13.9 0.00 0.11 0.00 100 1017.6
20260510175504 85 120 4.3 13.9 0.00 0.11 0.00 100 1017.5
20260510175002 86 187 7.8 13.9 0.00 0.11 0.00 100 1017.6
20260510174502 86 118 1.7 13.0 0.00 0.11 0.00 100 1017.7
20260510174002 86 146 5.2 13.9 0.00 0.11 0.00 100 1017.7
20260510173502 87 93 3.5 9.6 0.00 0.11 0.00 100 1017.7
20260510173002 88 113 4.3 9.6 0.00 0.11 0.00 100 1017.9
20260510172503 89 172 2.6 7.8 0.00 0.11 0.00 100 1017.8
20260510172100 90 181 0.9 6.1 0.00 0.11 0.00 100 1017.8
20260510171607 89 234 2.6 6.1 0.00 0.11 0.00 100 1017.9
20260510171100 89 175 2.6 7.0 0.00 0.11 0.00 100 1017.9
20260510170656 89 227 0.0 7.8 0.00 0.11 0.00 100 1018.0
20260510170054 89 235 3.5 7.8 0.00 0.11 0.00 100 1018.1
20260510165553 90 219 1.7 6.1 0.00 0.11 0.00 100 1018.1
20260510165050 89 231 1.7 7.8 0.00 0.11 0.00 100 1018.1
20260510164550 90 164 1.7 9.6 0.00 0.11 0.00 100 1018.2
20260510164048 89 221 3.5 9.6 0.00 0.11 0.00 100 1018.2
20260510163548 88 169 3.5 8.7 0.00 0.11 0.00 100 1018.3
20260510163047 88 257 2.6 6.1 0.00 0.11 0.00 100 1018.3
20260510162543 88 234 1.7 6.1 0.00 0.11 0.00 100 1018.4
20260510162043 89 215 2.6 7.8 0.00 0.11 0.00 100 1018.3
20260510161540 89 239 1.7 7.0 0.00 0.11 0.00 100 1018.3
20260510161040 89 208 2.6 8.7 0.00 0.11 0.00 100 1018.3
20260510160537 89 259 2.6 8.7 0.00 0.11 0.00 100 1018.3
20260510160036 87 171 2.6 11.3 0.00 0.11 0.00 100 1018.4
20260510155534 88 242 2.6 11.3 0.00 0.11 0.00 100 1018.4
20260510155033 88 219 2.6 8.7 0.00 0.11 0.00 100 1018.5
20260510154538 87 269 1.7 7.0 0.00 0.11 0.00 100 1018.4
20260510154031 87 182 2.6 7.0 0.00 0.11 0.00 100 1018.5
20260510153529 87 177 3.5 7.0 0.00 0.11 0.00 100 1018.5
20260510153027 87 223 0.9 6.1 0.00 0.11 0.00 100 1018.6
20260510152526 87 201 2.6 8.7 0.00 0.11 0.00 100 1018.6
20260510152024 87 269 3.5 9.6 0.00 0.11 0.00 100 1018.4
20260510151524 86 270 5.2 9.6 0.00 0.11 0.00 100 1018.4
20260510151020 86 236 2.6 7.0 0.00 0.11 0.00 100 1018.3
20260510150519 86 221 2.6 9.6 0.00 0.11 0.00 100 1018.3
20260510150018 86 223 3.5 9.6 0.00 0.11 0.00 100 1018.2
20260510145515 85 244 2.6 7.0 0.00 0.11 0.00 100 1018.2
20260510145014 85 235 2.6 10.4 0.00 0.11 0.00 100 1018.3
20260510144513 85 222 2.6 10.4 0.00 0.11 0.00 100 1018.3
20260510144013 84 201 2.6 9.6 0.00 0.11 0.00 100 1018.3
20260510143512 84 211 2.6 9.6 0.00 0.11 0.00 100 1018.2
20260510143015 84 235 0.9 9.6 0.00 0.11 0.00 100 1018.2
20260510142512 84 242 3.5 10.4 0.00 0.11 0.00 100 1018.2
20260510142013 84 248 3.5 8.7 0.00 0.11 0.00 100 1018.1
20260510141509 84 229 2.6 7.8 0.00 0.11 0.00 100 1018.1
20260510141009 84 227 1.7 7.8 0.00 0.11 0.00 100 1018.0
20260510140507 83 197 1.7 7.0 0.00 0.11 0.00 100 1018.0
20260510140006 83 244 0.0 7.0 0.00 0.11 0.00 100 1018.0
20260510135505 82 246 1.7 7.8 0.00 0.11 0.00 100 1018.0
20260510135004 82 171 2.6 7.8 0.00 0.11 0.00 100 1018.2
20260510134504 82 207 1.7 6.1 0.00 0.11 0.00 100 1018.2
20260510134003 82 217 1.7 7.0 0.00 0.11 0.00 100 1018.3
20260510133502 81 230 3.5 7.0 0.00 0.11 0.00 100 1018.3
20260510133001 81 246 1.7 6.1 0.00 0.11 0.00 100 1018.2
20260510132600 81 209 0.9 7.8 0.00 0.11 0.00 100 1018.0
20260510132059 81 197 3.5 7.8 0.00 0.11 0.00 100 1018.1
20260510131558 81 207 1.7 7.0 0.00 0.11 0.00 100 1018.1
20260510131057 80 234 2.6 7.8 0.00 0.11 0.00 100 1017.9
20260510130557 79 215 1.7 4.3 0.00 0.11 0.00 100 1017.8
20260510130055 79 175 1.7 6.1 0.00 0.11 0.00 100 1017.8
20260510125553 78 195 2.6 6.1 0.00 0.11 0.00 100 1018.0
20260510125052 78 207 0.9 4.3 0.00 0.11 0.00 100 1017.9
20260510124556 77 228 0.9 6.1 0.00 0.11 0.00 100 1017.7
20260510124051 77 183 1.7 7.0 0.00 0.11 0.00 100 1017.6
20260510123551 76 171 2.6 7.0 0.00 0.11 0.00 100 1017.6
20260510123054 76 201 0.9 7.0 0.00 0.11 0.00 100 1017.6
20260510122550 76 190 0.9 5.2 0.00 0.11 0.00 100 1017.7
20260510122048 75 171 1.7 5.2 0.00 0.11 0.00 100 1017.5
20260510121548 75 182 0.9 4.3 0.00 0.11 0.00 100 1017.4
20260510121048 75 173 1.7 4.3 0.00 0.11 0.00 100 1017.4
20260510120548 75 190 0.0 0.0 0.00 0.11 0.00 100 1017.3
20260510120047 75 194 0.0 0.9 0.00 0.11 0.00 100 1017.3
20260510115546 74 194 0.0 0.9 0.00 0.11 0.00 100 1017.2
20260510115046 74 191 0.0 1.7 0.00 0.11 0.00 100 1017.1
20260510114545 74 191 0.0 1.7 0.00 0.11 0.00 100 1017.2
20260510114048 74 192 0.0 0.0 0.00 0.11 0.00 100 1016.9
20260510113545 74 192 0.0 0.0 0.00 0.11 0.00 100 1016.9
20260510113045 74 193 0.0 0.0 0.00 0.11 0.00 100 1016.9
20260510112544 74 217 0.0 0.0 0.00 0.11 0.00 100 1016.9
20260510112047 74 221 0.0 0.0 0.00 0.11 0.00 100 1016.8
20260510111554 74 225 0.0 0.0 0.00 0.11 0.00 100 1016.8
20260510111045 74 225 0.0 0.0 0.00 0.11 0.00 100 1016.7
20260510110542 74 229 0.0 0.0 0.00 0.11 0.00 100 1016.7
20260510110044 74 231 0.0 0.0 0.00 0.11 0.00 100 1016.6
20260510105544 74 231 0.0 0.0 0.00 0.11 0.00 100 1016.6
20260510105042 74 231 0.0 0.0 0.00 0.11 0.00 100 1016.6
20260510104601 74 229 0.0 0.0 0.00 0.11 0.00 100 1016.5
20260510104044 74 229 0.0 0.0 0.00 0.11 0.00 100 1016.5
20260510103541 74 229 0.0 0.0 0.00 0.11 0.00 100 1016.4
20260510103043 74 229 0.0 0.0 0.00 0.11 0.00 100 1016.3
20260510102540 74 229 0.0 0.0 0.00 0.11 0.00 100 1016.3
20260510102041 74 226 0.0 0.0 0.00 0.11 0.00 100 1016.1
20260510101540 74 225 0.0 0.0 0.00 0.11 0.00 100 1016.0
20260510101042 74 225 0.0 0.0 0.00 0.11 0.00 100 1015.8
20260510100542 74 225 0.0 0.0 0.00 0.11 0.00 100 1015.9
20260510100039 74 225 0.0 0.0 0.00 0.11 0.00 100 1015.8
20260510095543 74 225 0.0 0.0 0.00 0.11 0.00 100 1015.8
20260510095038 74 225 0.0 0.0 0.00 0.11 0.00 100 1015.7
20260510094541 74 225 0.0 0.0 0.00 0.11 0.00 100 1015.7
20260510094041 74 225 0.0 0.0 0.00 0.11 0.00 100 1015.6
20260510093537 74 225 0.0 0.0 0.00 0.11 0.00 100 1015.7
20260510093037 74 225 0.0 0.0 0.00 0.11 0.00 100 1015.6
20260510092537 74 225 0.0 0.0 0.00 0.11 0.00 100 1015.7
20260510092039 74 225 0.0 0.0 0.00 0.11 0.00 100 1015.8
20260510091536 74 225 0.0 0.0 0.00 0.11 0.00 100 1015.7
20260510091037 74 225 0.0 0.0 0.00 0.11 0.00 100 1015.7
20260510090536 74 225 0.0 0.0 0.00 0.11 0.00 100 1015.6
20260510090042 74 225 0.0 0.0 0.00 0.11 0.00 100 1015.6
20260510085533 74 225 0.0 0.0 0.00 0.11 0.00 100 1015.5
20260510085034 74 225 0.0 0.0 0.00 0.11 0.00 100 1015.5
20260510084534 74 225 0.0 0.0 0.00 0.11 0.00 100 1015.5
20260510084034 74 225 0.0 0.0 0.00 0.11 0.00 100 1015.5
20260510083533 74 225 0.0 2.6 0.00 0.11 0.00 100 1015.5
20260510083034 74 225 0.9 2.6 0.00 0.11 0.00 100 1015.4
20260510082532 75 288 0.0 0.0 0.00 0.11 0.00 100 1015.3
20260510082033 75 288 0.0 0.9 0.00 0.11 0.00 100 1015.4
20260510081531 75 288 0.0 0.9 0.00 0.11 0.00 100 1015.3
20260510081031 75 288 0.0 0.9 0.00 0.11 0.00 100 1015.3
20260510080534 75 288 0.0 0.0 0.00 0.11 0.00 100 1015.3
20260510080033 75 288 0.0 0.0 0.00 0.11 0.00 100 1015.3
20260510075531 75 288 0.0 0.0 0.00 0.11 0.00 100 1015.3
20260510075031 75 288 0.0 0.0 0.00 0.11 0.00 100 1015.2
20260510074534 75 288 0.0 0.0 0.00 0.11 0.00 100 1015.2
20260510074029 75 288 0.0 0.0 0.00 0.11 0.00 100 1015.3
20260510073534 75 288 0.0 0.0 0.00 0.11 0.00 100 1015.3
20260510073031 75 288 0.0 0.9 0.00 0.11 0.00 100 1015.4
20260510072529 75 288 0.0 1.7 0.00 0.11 0.00 100 1015.3
20260510072029 75 288 0.0 0.9 0.00 0.11 0.00 100 1015.3
20260510071527 75 287 0.0 0.0 0.00 0.11 0.00 100 1015.3
20260510071027 75 286 0.0 1.7 0.00 0.11 0.00 100 1015.3
20260510070530 75 286 0.0 3.5 0.00 0.11 0.00 100 1015.3
20260510070027 75 302 0.0 3.5 0.00 0.11 0.00 100 1015.3
20260510065529 75 304 0.0 4.3 0.00 0.11 0.00 100 1015.4
20260510065027 75 279 0.9 4.3 0.00 0.11 0.00 100 1015.4
20260510064528 75 321 0.9 3.5 0.00 0.11 0.00 100 1015.4
20260510064024 75 292 0.0 2.6 0.00 0.11 0.00 100 1015.5
20260510063524 75 274 0.0 2.6 0.00 0.11 0.00 100 1015.6
20260510063027 75 275 0.0 2.6 0.00 0.11 0.00 100 1015.6
20260510062523 75 277 0.0 2.6 0.00 0.11 0.00 100 1015.7
20260510062025 75 248 0.0 3.5 0.00 0.11 0.00 100 1015.7
20260510061529 75 242 0.9 4.3 0.00 0.11 0.00 100 1015.7
20260510061022 75 242 0.9 3.5 0.00 0.11 0.00 100 1015.8
20260510060522 75 243 0.0 0.0 0.00 0.11 0.00 100 1015.7
20260510060041 75 243 0.0 0.0 0.00 0.11 0.00 100 1015.7
20260510055521 75 243 0.0 0.0 0.00 0.11 0.00 100 1015.6
20260510055020 75 243 0.0 0.0 0.00 0.11 0.00 100 1015.7
20260510054521 76 228 0.0 0.0 0.00 0.11 0.00 100 1015.8
20260510054019 76 227 0.0 0.9 0.00 0.11 0.00 100 1015.9
20260510053519 76 227 0.0 0.9 0.00 0.11 0.00 100 1015.9
20260510053018 76 227 0.0 0.0 0.00 0.11 0.00 100 1016.1
20260510052518 76 200 0.0 0.0 0.00 0.11 0.00 100 1016.1
20260510052018 76 197 0.0 0.0 0.00 0.11 0.00 100 1016.1
20260510051518 76 192 0.0 0.0 0.00 0.11 0.00 100 1016.2
20260510051017 76 191 0.0 0.0 0.00 0.11 0.00 100 1016.1
20260510050517 76 190 0.0 0.0 0.00 0.11 0.00 100 1016.3
20260510050023 76 190 0.0 0.0 0.00 0.11 0.00 100 1016.3
20260510045519 76 190 0.0 0.0 0.00 0.11 0.00 100 1016.3
20260510045016 76 190 0.0 0.0 0.00 0.11 0.00 100 1016.3
20260510044517 76 190 0.0 0.0 0.00 0.11 0.00 100 1016.2
20260510044019 76 190 0.0 0.0 0.00 0.11 0.00 100 1016.2
20260510043517 76 190 0.0 0.0 0.00 0.11 0.00 100 1016.2
20260510043014 76 190 0.0 0.0 0.00 0.11 0.00 100 1016.3
20260510042514 77 190 0.0 0.0 0.00 0.11 0.00 100 1016.4
20260510042014 77 190 0.0 0.0 0.00 0.11 0.00 100 1016.5
20260510041516 76 190 0.0 0.0 0.00 0.11 0.00 100 1016.4
20260510041012 77 190 0.0 0.0 0.00 0.11 0.00 100 1016.5
20260510040511 77 190 0.0 0.0 0.00 0.11 0.00 100 1016.5
20260510040010 77 190 0.0 0.0 0.00 0.11 0.00 100 1016.5
20260510035510 77 190 0.0 0.0 0.00 0.11 0.00 100 1016.5
20260510035007 77 190 0.0 1.7 0.00 0.11 0.00 100 1016.6
20260510034507 77 190 0.0 2.6 0.00 0.11 0.11 100 1016.6
20260510034007 77 166 0.0 1.7 0.00 0.11 0.11 100 1016.5
20260510033506 77 155 0.0 0.0 0.00 0.11 0.11 100 1016.4
20260510033005 76 155 0.0 0.0 0.00 0.11 0.11 100 1016.4
20260510032506 76 155 0.0 0.0 0.00 0.11 0.11 100 1016.3
20260510032005 76 155 0.0 5.2 0.00 0.11 0.11 100 1016.2
20260510031505 76 155 1.7 5.2 0.00 0.11 0.11 100 1016.3
20260510031003 76 190 0.9 2.6 0.00 0.11 0.11 100 1016.2
20260510030503 77 311 0.0 0.9 0.00 0.11 0.11 100 1016.1
20260510030103 77 310 0.0 1.7 0.00 0.11 0.11 100 1016.0
20260510025504 77 310 0.0 0.9 0.00 0.11 0.11 100 1015.9
20260510025005 77 310 0.0 2.6 0.00 0.11 0.11 100 1016.0
20260510024504 77 311 0.0 2.6 0.00 0.11 0.11 100 1015.8
20260510024004 77 312 0.0 2.6 0.00 0.11 0.11 100 1015.8
20260510023502 77 348 0.9 3.5 0.01 0.11 0.11 100 1015.8
20260510023002 76 337 1.7 3.5 0.02 0.11 0.11 100 1015.8
20260510022504 77 348 0.0 3.5 0.11 0.11 0.11 100 1015.7
20260510022002 76 351 0.9 3.5 0.11 0.11 0.11 100 1015.5
20260510021502 76 12 0.0 3.5 0.11 0.11 0.11 100 1015.5
20260510021001 76 355 0.9 4.3 0.11 0.11 0.11 100 1015.4
20260510020502 76 342 0.9 4.3 0.11 0.11 0.11 100 1015.4
20260510020002 76 350 0.0 5.2 0.11 0.11 0.11 100 1015.3
20260510015502 76 348 1.7 5.2 0.11 0.11 0.11 100 1015.3
20260510015003 77 346 1.7 5.2 0.11 0.11 0.11 100 1015.4
20260510014501 77 330 0.0 7.8 0.11 0.11 0.11 100 1015.4
20260510014001 77 343 3.5 7.8 0.11 0.11 0.11 100 1015.3
20260510013501 78 24 1.7 10.4 0.10 0.10 0.10 100 1015.3
20260510013010 80 309 1.7 10.4 0.08 0.08 0.08 100 1015.5
20260510012500 83 325 4.3 9.6 0.00 0.00 0.00 100 1015.5
20260510012101 84 316 4.3 8.7 0.00 0.00 0.00 100 1015.1
20260510011625 84 355 0.9 7.8 0.00 0.00 0.00 100 1014.8
20260510011100 84 26 1.7 6.1 0.00 0.00 0.00 100 1014.6
20260510010600 83 291 0.9 5.2 0.00 0.00 0.00 100 1014.6
20260510010110 83 332 0.9 5.2 0.00 0.00 0.00 100 1014.6
20260510005601 83 316 1.7 11.3 0.00 0.00 0.00 100 1014.3
20260510005059 83 160 5.2 11.3 0.00 0.00 0.00 100 1014.0
20260510004600 82 153 3.5 12.2 0.00 0.00 0.00 100 1013.5
20260510004059 82 154 4.3 12.2 0.00 0.00 0.00 100 1013.4
20260510003601 82 137 5.2 10.4 0.00 0.00 0.00 100 1013.2
20260510003107 82 155 3.5 12.2 0.00 0.00 0.00 100 1013.2
20260510002558 82 165 6.1 13.0 0.00 0.00 0.00 100 1013.2
20260510002502 82 173 6.1 13.0 0.00 0.00 0.00 100 1013.2
20260510002058 82 188 6.1 10.4 0.00 0.00 0.00 100 1013.2
20260510001558 82 129 6.1 12.2 0.00 0.00 0.00 100 1013.1
20260510001057 83 148 3.5 12.2 0.00 0.00 0.00 100 1013.1
20260510000556 83 167 6.1 9.6 0.00 0.00 0.00 100 1013.1
20260510000059 83 184 4.3 13.0 0.00 0.00 0.00 100 1013.0
20260509235557 83 147 5.2 13.0 0.00 0.00 0.00 100 1012.9
20260509235057 83 155 4.3 11.3 0.00 0.00 0.00 100 1013.0
20260509234606 83 159 4.3 12.2 0.00 0.00 0.00 100 1012.9
20260509234056 83 174 4.3 12.2 0.00 0.00 0.00 100 1013.0
20260509233556 83 173 4.3 14.8 0.00 0.00 0.00 100 1012.9
20260509233103 83 138 6.1 16.5 0.00 0.00 0.00 100 1012.8
20260509232558 83 167 7.0 16.5 0.00 0.00 0.00 100 1012.7
20260509232056 83 150 7.0 14.8 0.00 0.00 0.00 100 1012.7
20260509231603 84 142 5.2 13.0 0.00 0.00 0.00 100 1012.8
20260509231055 84 141 6.1 13.0 0.00 0.00 0.00 100 1012.7
20260509230555 84 144 4.3 16.5 0.00 0.00 0.00 100 1012.8
20260509230057 84 150 8.7 15.6 0.00 0.00 0.00 100 1012.7
20260509225554 84 213 7.8 15.6 0.00 0.00 0.00 100 1012.9
20260509225502 84 162 7.8 15.6 0.00 0.00 0.00 100 1012.9
20260509225059 84 176 5.2 13.9 0.00 0.00 0.00 100 1012.8
20260509224604 84 169 9.6 16.5 0.00 0.00 0.00 100 1012.7
20260509224057 84 171 5.2 17.4 0.00 0.00 0.00 100 1012.7
20260509223554 84 159 6.1 17.4 0.00 0.00 0.00 100 1012.7
20260509223055 84 134 8.7 17.4 0.00 0.00 0.00 100 1012.7
20260509222556 84 163 7.0 19.1 0.00 0.00 0.00 100 1012.7
20260509222054 84 151 7.8 19.1 0.00 0.00 0.00 100 1012.7
20260509221553 85 157 7.8 16.5 0.00 0.00 0.00 100 1012.7
20260509221053 85 155 8.7 16.5 0.00 0.00 0.00 100 1012.8
20260509220552 85 155 7.0 14.8 0.00 0.00 0.00 100 1012.9
20260509220053 85 186 5.2 19.1 0.00 0.00 0.00 100 1012.8
20260509215552 85 118 7.8 19.1 0.00 0.00 0.00 100 1012.8
20260509214551 85 115 10.4 19.1 0.00 0.00 0.00 100 1012.8
20260509214051 84 134 9.6 19.1 0.00 0.00 0.00 100 1012.8
20260509213551 85 154 7.8 14.8 0.00 0.00 0.00 100 1012.8
20260509213102 85 138 9.6 14.8 0.00 0.00 0.00 100 1012.9